Regional Weather Roundup
Issued by NWS

Home | Current Version | Previous Version | Text Only | Print | Product List | Glossary On
Versions: 1 2 3 4 5 6 7 8 9 10 11 12 13 14 15 16 17 18 19 20 21 22 23 24 25 26 27 28 29 30 31 32 33 34 35 36 37 38 39 40 41 42 43 44 45 46 47 48 49 50
000
ASUS46 KSEW 240710
RWRWA

WASHINGTON REGIONAL WEATHER ROUNDUP
NATIONAL WEATHER SERVICE SEATTLE WA
1200 AM PDT WED AUG 24 2016

NOTE:"FAIR" INDICATES FEW OR NO CLOUDS BELOW 12,000 FEET WITH NO
SIGNIFICANT WEATHER AND/OR OBSTRUCTIONS TO VISIBILITY.

WAZ505-507>509-240800-
SEATTLE, TACOMA, EVERETT, AND VICINITY

CITY           SKY/WX    TMP DP  RH WIND       PRES   REMARKS
EVERETT        CLEAR     61  49  64 N6        30.21S
BOEING FIELD   CLEAR     65  55  70 CALM      30.19S
RENTON         CLEAR     67  55  65 CALM      30.18S
SEATAC AIRPORT CLEAR     68  52  56 NE7       30.20S
JBLM-MCCHORD   CLEAR     56  51  85 CALM      30.19S
PUYALLUP         N/A     55  54  94 CALM      30.20S
BREMERTON      CLEAR     54  48  82 CALM      30.24S
JBLM-FT LEWIS  CLEAR     62  51  67 SE3       30.19R
TACOMA NARROWS CLEAR     59  50  72 CALM      30.20S
$$

WAZ001-503-506-510-514-515-240800-
NORTH INTERIOR

CITY           SKY/WX    TMP DP  RH WIND       PRES   REMARKS
BELLINGHAM     CLEAR     57  54  89 CALM      30.19R
FRIDAY HARBOR  CLEAR     54  49  83 CALM      30.20S
EASTSOUND      CLEAR     57  54  88 S3        30.18S
PORT ANGELES   CLEAR     55  48  77 CALM      30.21S
EDIZ HOOK      FAIR      57  50  78 W7        30.21S
PORT TOWNSEND  FAIR      54  50  87 CALM      30.20S
NAS WHIDBEY    PTCLDY    56  48  74 CALM      30.23S
ARLINGTON      CLEAR     57  46  67 CALM      30.21S
BURLINGTON     CLEAR     59  54  82 CALM      30.20S
$$

WAZ020-022-039-040-504-511-512-240800-
SOUTHWEST INTERIOR

CITY           SKY/WX    TMP DP  RH WIND       PRES   REMARKS
SHELTON        CLEAR     57  50  77 CALM      30.18R
OLYMPIA        CLEAR     60  50  69 CALM      30.19S
CHEHALIS       FAIR      61  55  82 CALM      30.19S
KELSO          CLEAR     63  54  72 N3        30.17S
VANCOUVER      CLEAR     68  52  56 W3        30.13R
SCAPPOOSE, OR  CLEAR     69  50  50 N6        30.13R
PORTLAND, OR   CLEAR     70  51  51 NW9       30.13S
$$

WAZ021-516-517-240800-
WASHINGTON COAST

CITY           SKY/WX    TMP DP  RH WIND       PRES   REMARKS
FORKS          CLEAR     53  50  89 CALM      30.20S
HOQUIAM        CLEAR     56  54  93 CALM      30.20S
ASTORIA, OR    CLEAR     56  51  84 CALM      30.18F
$$

WAZ019-023-024-040-518-519-240800-
CASCADE MOUNTAINS AND COLUMBIA GORGE

CITY           SKY/WX    TMP DP  RH WIND       PRES   REMARKS
STAMPEDE PASS  CLEAR     53  44  71 SW3       30.29S
TROUTDALE, OR  CLEAR     65  51  60 CALM      30.13R
THE DALLES, OR CLEAR     65  43  44 E6        30.11R
$$

WAZ026-027-041>044-520-521-240800-
EAST SLOPES

CITY           SKY/WX    TMP DP  RH WIND       PRES   REMARKS
OMAK           CLEAR     63  40  42 NW5       30.18R
WENATCHEE      CLOUDY    73  46  38 NW8       30.15S
ELLENSBURG     CLEAR     62  48  60 NW8       30.18R
YAKIMA         CLEAR     66  42  41 W7        30.15S
$$

WAZ028-034-035-240800-
COLUMBIA BASIN

CITY           SKY/WX    TMP DP  RH WIND       PRES   REMARKS
EPHRATA        MOCLDY    72  40  31 N13       30.13S
MOSES LAKE     PTCLDY    68  39  34 N5        30.14R
PASCO          CLEAR     60  50  69 CALM      30.10S
HERMISTON, OR  CLEAR     59  41  51 SE5       30.11R
$$

WAZ036>038-240800-
NORTHEAST WASHINGTON

CITY           SKY/WX    TMP DP  RH WIND       PRES   REMARKS
SPOKANE GEIGER MOCLDY    67  41  38 CALM      30.17S
SPOKANE FELTS  PTCLDY    63  43  48 N3        30.16F
FAIRCHILD AFB  MOCLDY    67  41  39 E6        30.17S
COEURDALENE,ID CLEAR     61  45  55 NE10      30.16S
DEER PARK      CLOUDY    63  42  46 NE9       30.18R
$$

WAZ029>033-240800-
SOUTHEAST WASHINGTON

CITY           SKY/WX    TMP DP  RH WIND       PRES   REMARKS
PULLMAN        CLEAR     51  37  58 CALM      30.19S
LEWISTON, ID   CLEAR     64  38  38 S6        30.13R
WALLA WALLA    CLEAR     65  42  43 E8        30.13S
PENDLETON, OR  CLEAR     60  37  42 SE8       30.14S
$$



USA.gov is the U.S. government's official web portal to all federal, state and local government web resources and services.